{"data":{"norad_id":65063,"epoch":"2026-05-25T04:20:25.135008Z","epoch_age_seconds":73498,"freshness":"FRESH","line1":"1 65063U 25165H   26145.18084647  .00004980  00000+0  34891-3 0  9993","line2":"2 65063  97.4474 222.3121 0002249 142.0409 218.0977 15.05651827 46304","mean_motion":15.05651827,"eccentricity":0.0002249,"inclination_deg":97.4474,"raan_deg":222.3121,"arg_perigee_deg":142.0409,"mean_anomaly_deg":218.0977,"bstar":0.00034891,"rev_number":4630,"period_min":95.639640863664,"perigee_km":547.94752309394,"apogee_km":551.06357671288,"semimajor_km":6927.6425499034,"source":"CELESTRAK","updated_at":"2026-05-25T13:38:20.677580Z"}}